Weather observations for the past three days for
Burlington Municipal Airport
Imperial (Metric)
Date Time (cdt) Wind (mph) Vis. (mi.) Weather Sky Cond. Temperature (ºF) Relative Humidity Wind Chill (°F) Heat Index (°F) Pressure Precipitation (in)
Air Dwpt 6 hour altimeter (in) sea level (mb) 1 hr 3 hr 6 hr
Max. Min.
12 22:15 SW 5 10.00 Partly Cloudy SCT120 70.7 61.9 74% 29.82 0.0
12 21:55 SW 5 10.00 Partly Cloudy SCT120 71.1 61.9 73% 29.82 0.0
12 21:35 Calm 10.00 Partly Cloudy SCT100 SCT120 70.2 63 78% 29.81 0.0
12 21:15 Calm 10.00 Partly Cloudy SCT100 71.6 61 69% 29.81 0.0
12 20:55 Calm 10.00 Mostly Cloudy BKN110 72.7 60.8 66% 29.81 0.0
12 20:35 N 3 10.00 Mostly Cloudy BKN120 73.4 60.4 64% 29.83 0.0
12 20:15 NW 13 10.00 Partly Cloudy SCT120 74.3 59.9 61% 29.84 0.0
12 19:55 NW 10 G 24 10.00 Partly Cloudy SCT080 75.9 60.4 59% 78 29.85 0.0
12 19:35 W 22 G 25 10.00 Partly Cloudy and Breezy SCT080 80.2 59.9 50% 81 29.85 0.0
12 19:15 Calm 10.00 Fair CLR 82.6 58.1 43% 82 29.83 0.0
12 18:55 W 3 10.00 Fair CLR 83.3 56.1 88.7 83.3 39% 83 29.84 0.0
12 18:35 W 5 10.00 Fair CLR 84.4 55.9 38% 83 29.84 0.0
12 18:15 SW 7 10.00 Fair CLR 86.2 54.7 34% 85 29.84 0.0
12 17:55 SW 8 10.00 Fair CLR 86.9 55.2 34% 85 29.84 0.0
12 17:35 SW 6 10.00 Fair CLR 87.3 54.1 32% 85 29.84 0.0
12 17:15 SW 10 10.00 Fair CLR 86.9 53.8 32% 85 29.85 0.0
12 16:55 W 8 10.00 Fair CLR 87.4 54.5 33% 86 29.85 0.0
12 16:35 SW 8 10.00 Fair CLR 87.3 53.4 31% 85 29.86 0.0
12 16:15 SW 9 10.00 Fair CLR 87.6 52.7 30% 85 29.86 0.0
12 15:55 SW 9 10.00 Fair CLR 88 54.3 32% 86 29.86 0.0
12 15:35 W 9 10.00 Partly Cloudy SCT090 88 53.8 31% 86 29.87 0.0
12 15:15 SW 12 G 17 10.00 Partly Cloudy SCT090 88.2 53.1 30% 86 29.87 0.0
12 14:55 SW 9 10.00 Partly Cloudy SCT090 87.8 51.6 29% 85 29.87 0.0
12 14:35 W 9 G 17 10.00 Fair CLR 88 51.4 29% 85 29.88 0.0
12 14:15 W 7 G 12 10.00 Fair CLR 87.4 50.2 28% 85 29.89 0.0
12 13:55 W 7 10.00 Fair CLR 88 50.9 28% 85 29.89 0.0
12 13:35 SW 12 10.00 Fair CLR 87.3 52 30% 85 29.89 0.0
12 13:15 W 8 10.00 Fair CLR 86.4 52 31% 84 29.89 0.0
12 12:55 SW 10 G 16 10.00 Fair CLR 86.2 52.3 86.5 66.2 31% 84 29.9 0.0
12 12:35 SW 9 10.00 Fair CLR 86.2 53.4 33% 84 29.9 0.0
12 12:15 W 9 10.00 Fair CLR 85.5 51.1 31% 83 29.91 0.0
12 11:55 SW 7 10.00 Fair CLR 84.9 55.9 37% 84 29.91 0.0
12 11:35 SW 8 10.00 Fair CLR 83.3 57.6 42% 83 29.91 0.0
12 11:15 SW 6 10.00 Fair CLR 82.8 60.1 46% 83 29.91 0.0
12 10:55 SW 5 10.00 Fair CLR 81.1 59.9 49% 82 29.92 0.0
12 10:35 S 5 10.00 Fair CLR 79.9 62.4 55% 81 29.92 0.0
12 10:15 SW 5 10.00 Fair CLR 77.9 61.9 58% 79 29.91 0.0
12 09:55 Calm 10.00 Fair CLR 77.4 61 57% 79 29.91 0.0
12 09:35 SW 5 10.00 Fair CLR 76.6 62.1 61% 78 29.91 0.0
12 09:15 S 5 10.00 Fair CLR 75 62.4 65% 77 29.91 0.0
12 08:55 SW 3 10.00 Fair CLR 73.4 61.2 66% 29.91 0.0
12 08:35 SW 3 10.00 Fair CLR 72.5 61.2 68% 29.91 0.0
12 08:15 Calm 10.00 Fair CLR 71.2 59.9 68% 29.91 0.0
12 07:55 SW 5 10.00 Fair CLR 70.2 59.7 70% 29.91 0.0
12 07:35 SW 5 10.00 Fair CLR 68.7 58.8 71% 29.91 0.0
12 07:15 SW 5 10.00 Fair CLR 67.3 58.3 73% 29.91 0.0
12 06:55 SW 6 10.00 Fair CLR 66.2 57.6 66.2 58.8 74% 29.9 0.0
12 06:35 SW 6 10.00 Fair CLR 65.3 56.8 74% 29.91 0.0
12 06:15 SW 6 10.00 Fair CLR 64.2 56.5 76% 29.9 0.0
12 05:55 SW 3 10.00 Fair CLR 63.7 55.9 76% 29.9 0.0
12 05:35 SW 3 10.00 Fair CLR 63.5 55.8 76% 29.9 0.0
12 05:15 SW 7 10.00 Fair CLR 64.6 55.8 73% 29.89 0.0
12 04:55 SW 7 10.00 Fair CLR 64.9 55.9 73% 29.89 0.0
12 04:35 SW 5 10.00 Fair CLR 64.6 55.8 73% 29.88 0.0
12 04:15 SW 3 10.00 Fair CLR 62.6 54.9 76% 29.88 0.0
12 03:55 S 5 10.00 Partly Cloudy SCT065 SCT095 61.9 54 75% 29.87 0.0
12 03:35 SW 3 10.00 Mostly Cloudy SCT065 BKN085 BKN110 63.7 53.8 70% 29.87 0.0
12 03:15 S 5 10.00 Partly Cloudy SCT065 SCT085 SCT110 63.1 53.2 70% 29.86 0.0
12 02:55 S 5 10.00 Partly Cloudy SCT065 SCT085 SCT110 62.6 52.5 70% 29.87 0.0
12 02:35 Calm 10.00 Mostly Cloudy BKN070 BKN085 BKN110 63.5 51.3 65% 29.87 0.0
12 02:15 S 3 10.00 Mostly Cloudy BKN080 BKN100 62.6 50.9 66% 29.87 0.0
12 01:55 S 3 10.00 Partly Cloudy SCT080 60.8 50 68% 29.88 0.0
12 01:35 Calm 10.00 Mostly Cloudy BKN085 60.4 50.2 69% 29.88 0.0
12 01:15 Calm 10.00 Mostly Cloudy BKN085 59.9 49.8 70% 29.89 0.0
12 00:55 Calm 10.00 Partly Cloudy SCT085 60.8 48.4 71.2 59.5 64% 29.89 0.0
12 00:35 Calm 10.00 Fair CLR 59.9 50.7 72% 29.89 0.0
12 00:15 Calm 10.00 Fair CLR 61 49.3 66% 29.89 0.0
11 23:55 Calm 10.00 Fair CLR 60.4 50.2 69% 29.9 0.0
11 23:35 Calm 10.00 Fair CLR 61.9 48.6 62% 29.9 0.0
11 23:15 Calm 10.00 Fair CLR 61.2 50.9 69% 29.9 0.0
11 22:55 Calm 10.00 Fair CLR 61.3 53.1 74% 29.9 0.0
11 22:35 Calm 10.00 Fair CLR 61.5 54.5 78% 29.9 0.0
11 22:15 Calm 10.00 Fair CLR 61 54.1 78% 29.9 0.0
11 21:55 Calm 10.00 Fair CLR 63.7 53.1 69% 29.9 0.0
11 21:35 Calm 10.00 Partly Cloudy SCT080 63.7 53.6 70% 29.9 0.0
11 21:15 SE 3 10.00 Overcast SCT070 OVC080 66.6 53.2 62% 29.9 0.0
11 20:35 SE 5 10.00 Overcast OVC070 68.5 49.6 51% 29.9 0.0
11 20:15 SE 5 10.00 Overcast BKN060 OVC070 68.9 48.4 48% 29.9 0.0
11 19:55 Calm 10.00 Overcast OVC070 69.8 49.6 49% 29.9 0.0
11 19:35 Calm 10.00 Overcast BKN075 OVC080 70.9 48.4 45% 29.9 0.0
11 19:15 Calm 10.00 Overcast SCT060 OVC075 70.2 48.9 47% 29.91 0.0
11 18:55 Calm 10.00 Overcast OVC075 71.2 46.2 77.4 71.1 41% 29.91 0.0
11 18:35 S 3 10.00 Overcast BKN070 OVC080 71.8 45.9 40% 29.9 0.0
11 17:55 SW 8 10.00 Overcast OVC090 74.1 41.9 31% 29.9 0.0
11 17:35 S 5 10.00 Overcast OVC100 74.1 43.7 34% 29.9 0.0
11 17:15 S 7 10.00 Overcast OVC100 75.6 41.7 30% 77 29.91 0.0
11 16:55 SW 9 10.00 Mostly Cloudy BKN110 75.7 43.2 31% 77 29.92 0.0
11 16:35 SW 8 10.00 Mostly Cloudy BKN110 74.5 41 30% 29.92 0.0
11 16:15 W 8 10.00 Mostly Cloudy BKN110 74.3 40.6 30% 29.93 0.0
11 15:55 W 5 10.00 Mostly Cloudy SCT090 BKN120 74.5 42.4 32% 29.94 0.0
11 15:35 W 6 10.00 Mostly Cloudy SCT090 BKN110 73.4 41.5 32% 29.94 0.0
11 15:15 SW 6 10.00 Fair CLR 73.8 42.6 33% 29.94 0.0
11 14:55 SW 8 10.00 Fair CLR 74.5 42.1 31% 29.95 0.0
11 14:35 W 6 10.00 Fair CLR 75.6 41.7 30% 77 29.96 0.0
11 14:15 SW 9 G 17 10.00 Fair CLR 76.1 43 31% 77 29.97 0.0
11 13:55 SW 6 G 17 10.00 Fair CLR 75.9 42.6 30% 77 29.97 0.0
11 13:35 W 8 10.00 Fair CLR 75 43.7 33% 77 29.97 0.0
11 13:15 SW 7 10.00 Fair CLR 74.5 44.6 34% 29.97 0.0
11 12:55 S 5 10.00 Fair CLR 73.9 46 74.5 50 37% 29.98 0.0
11 12:35 S 6 10.00 Fair CLR 73 46.4 39% 29.98 0.0
11 12:15 W 7 10.00 Fair CLR 72.9 45.7 38% 29.98 0.0
11 11:35 SW 8 10.00 Fair CLR 71.8 43.5 36% 29.99 0.0
11 11:15 W 8 10.00 Fair CLR 70.3 44.6 40% 29.99 0.0
11 10:55 S 3 10.00 Fair CLR 69.6 47.1 45% 29.99 0.0
11 10:35 W 3 10.00 Fair CLR 68.2 45.3 44% 30 0.0
11 10:15 SW 6 10.00 Fair CLR 66.7 45.1 46% 30 0.0
11 09:55 SW 6 10.00 Fair CLR 65.7 44.6 47% 30.01 0.0
11 09:30 S 6 10.00 Fair CLR 64.9 44.2 47% 30.01 0.0
11 09:15 S 3 10.00 Fair CLR 64 43.5 47% 30.01 0.0
11 08:55 S 5 10.00 Fair CLR 63.1 43.9 50% 30.02 0.0
11 08:35 Calm 10.00 Fair CLR 61.5 44.1 53% 30.02 0.0
11 08:15 S 3 10.00 Fair CLR 59.9 43.3 55% 30.03 0.0
11 07:55 Calm 10.00 Fair CLR 57.4 45.3 64% 30.04 0.0
11 07:35 SW 5 10.00 Fair CLR 55 46.4 73% 30.04 0.0
11 07:15 Calm 10.00 Fair CLR 51.8 46.2 81% 30.03 0.0
11 06:55 Calm 10.00 Fair CLR 50 47.5 50 44.1 91% 30.03 0.0
11 06:35 Calm 10.00 Fair CLR 47.5 46.4 96% 30.03 0.0
11 06:15 Calm 10.00 Fair CLR 46 45.3 97% 30.03 0.0
11 05:35 Calm 10.00 Fair CLR 44.6 44.1 98% 30.02 0.0
11 05:15 Calm 10.00 Fair CLR 44.4 43.7 97% 30.01 0.0
11 04:55 Calm 10.00 Fair CLR 44.6 43.9 97% 30.02 0.0
11 04:35 Calm 10.00 Fair CLR 44.6 44.1 98% 30.01 0.0
11 04:15 Calm 10.00 Fair CLR 44.8 44.1 97% 30.02 0.0
11 03:55 Calm 10.00 Fair CLR 45.9 45 97% 30.01 0.0
11 03:35 Calm 10.00 Fair CLR 45.7 44.8 97% 30.01 0.0
11 03:15 Calm 10.00 Fair CLR 45.7 44.8 97% 30.02 0.0
11 02:55 Calm 10.00 Fair CLR 46 44.8 95% 30.02 0.0
11 02:35 Calm 10.00 Fair CLR 46.4 45.7 97% 30.02 0.0
11 02:15 Calm 10.00 Fair CLR 46.6 45.3 95% 30.02 0.0
11 01:55 Calm 10.00 Fair CLR 47.1 45.7 95% 30.02 0.0
11 01:35 Calm 10.00 Fair CLR 47.5 45.9 94% 30.02 0.0
11 01:15 Calm 10.00 Fair CLR 48.6 46 91% 30.03 0.0
11 00:55 Calm 10.00 Fair CLR 48.2 46.2 68.2 48.2 93% 30.02 0.0
11 00:35 Calm 10.00 Fair CLR 48.6 46.8 94% 30.02 0.0
11 00:15 Calm 10.00 Fair CLR 48.6 46.6 93% 30.02 0.0
10 23:55 Calm 10.00 Fair CLR 50 47.3 91% 30.02 0.0
10 23:35 Calm 10.00 Fair CLR 50.2 46.6 88% 30.02 0.0
10 23:15 Calm 10.00 Fair CLR 52.3 45.7 78% 30.02 0.0
10 22:55 Calm 10.00 Fair CLR 53.4 45.9 76% 30 0.0
10 22:35 E 3 10.00 Fair CLR 53.8 46.4 76% 30 0.0
10 22:10 E 3 10.00 Fair CLR 55 45.1 69% 29.99 0.0
10 21:55 Calm 10.00 Fair CLR 55.6 45.5 69% 29.99 0.0
10 21:35 Calm 10.00 Fair CLR 56.3 45 66% 29.99 0.0
10 21:15 E 3 10.00 Fair CLR 57 44.8 64% 29.98 0.0
10 20:55 E 3 10.00 Fair CLR 58.1 44.1 60% 29.98 0.0
10 20:35 E 5 10.00 Fair CLR 59.4 45 59% 29.98 0.0
10 20:15 E 6 10.00 Fair CLR 61.3 44.8 55% 29.98 0.0
10 19:55 E 7 10.00 Fair CLR 63.7 45.5 52% 29.98 0.0
10 19:35 E 3 10.00 Fair CLR 66.7 43.7 43% 29.98 0.0
10 19:15 N 7 10.00 Fair CLR 68 36.7 32% 29.97 0.0
10 18:55 N 5 10.00 Fair CLR 68.2 38.1 69.6 66.4 33% 29.97 0.0
10 18:35 N 6 10.00 Fair CLR 68.7 39.4 34% 29.97 0.0
10 18:15 N 5 10.00 Fair CLR 68.5 39.2 34% 29.97 0.0
10 17:55 N 5 10.00 Fair CLR 68.9 39.4 34% 29.97 0.0
10 17:35 NW 6 10.00 Fair CLR 68.9 39 34% 29.98 0.0
10 17:15 N 5 10.00 Fair CLR 69.1 40.8 36% 29.98 0.0
10 16:55 N 9 10.00 Fair CLR 68.5 38.5 33% 29.98 0.0
10 16:35 NW 3 10.00 Fair CLR 68.9 38.1 33% 29.99 0.0
10 16:15 N 5 10.00 Fair CLR 68.4 41 37% 29.99 0.0
10 15:55 NW 6 10.00 Fair CLR 68.9 40.5 36% 29.99 0.0
10 15:35 N 9 10.00 Fair CLR 68.5 40.8 37% 29.99 0.0
10 15:15 N 12 G 16 10.00 Fair CLR 69.3 41.5 37% 29.99 0.0
10 14:55 N 9 10.00 Fair CLR 68.5 40.1 36% 29.99 0.0
10 14:35 NW 13 G 17 10.00 Fair CLR 69.1 41.9 37% 29.99 0.0
10 14:15 N 13 10.00 Fair CLR 68.4 39.9 36% 29.99 0.0
10 13:55 N 9 G 16 10.00 Fair CLR 68.2 41.2 38% 29.99 0.0
10 13:35 N 8 10.00 Fair CLR 67.3 41.2 39% 29.99 0.0
10 13:15 N 9 10.00 Fair CLR 66.9 41.2 39% 30 0.0
10 12:55 N 8 10.00 Fair CLR 66.2 41.2 66.4 52.3 40% 30 0.0
10 12:35 N 5 G 17 10.00 Fair CLR 65.5 41.2 41% 30 0.0
10 12:15 N 7 10.00 Fair CLR 65.3 42.1 43% 30 0.0
10 11:55 N 12 10.00 Fair CLR 64.8 41.5 43% 30.01 0.0
10 11:35 N 10 10.00 Fair CLR 64.4 41 43% 30.01 0.0
10 11:15 N 9 G 17 10.00 Fair CLR 63.1 40.6 44% 30.01 0.0
10 10:55 N 8 G 17 10.00 Fair CLR 62.6 40.8 45% 30.01 0.0
10 10:35 N 10 G 17 10.00 Fair CLR 62.4 40.5 45% 30.01 0.0
10 10:15 N 9 10.00 Fair CLR 61.2 42.3 50% 30.01 0.0
10 09:55 N 9 G 16 10.00 Fair CLR 60.6 41.7 50% 30.01 0.0
10 09:35 N 7 10.00 Fair CLR 59.9 43.3 55% 30.01 0.0
10 09:15 N 8 10.00 Fair CLR 58.3 42.3 55% 30.02 0.0
10 08:55 N 9 10.00 Fair CLR 57.6 43.2 59% 30.02 0.0
10 08:35 N 9 10.00 Fair CLR 56.8 43 60% 30.02 0.0
10 08:15 N 13 G 16 10.00 Fair CLR 56.5 43.7 62% 30.02 0.0
10 07:55 N 9 10.00 Fair CLR 55 43 64% 30.02 0.0
10 07:35 N 8 10.00 Fair CLR 54.3 42.8 65% 30.01 0.0
10 07:15 N 5 10.00 Fair CLR 53.1 42.8 68% 30.01 0.0
10 06:55 N 6 10.00 Fair CLR 52.3 43.5 55.4 50 72% 30.01 0.0
10 06:35 N 7 10.00 Fair CLR 51.4 43.5 74% 30 0.0
10 06:15 N 6 10.00 Fair CLR 50.5 43.7 78% 30 0.0
10 05:55 N 7 10.00 Fair CLR 50 43.7 79% 48 29.99 0.0
10 05:35 N 5 10.00 Fair CLR 50 43.7 79% 49 29.99 0.0
10 05:15 N 8 10.00 Partly Cloudy SCT050 50.2 44.1 80% 29.98 0.0
10 04:55 N 8 10.00 Fair CLR 50.7 44.6 80% 29.97 0.0
10 04:35 N 7 10.00 Fair CLR 50.7 45.5 82% 29.97 0.0
10 04:15 N 5 10.00 Partly Cloudy SCT047 51.3 45.3 80% 29.97 0.0
10 03:55 N 8 10.00 Overcast OVC049 52.7 45.5 77% 29.96 0.0
10 03:35 N 6 10.00 Overcast SCT022 BKN032 OVC045 53.1 50.7 92% 29.96 0.0
10 03:15 N 5 10.00 Overcast SCT007 SCT017 OVC030 53.1 50.9 92% 29.96 0.0
10 02:55 N 7 7.00 Overcast SCT007 BKN014 OVC022 52.9 50.9 93% 29.97 0.0
10 02:35 NE 6 7.00 Overcast SCT007 OVC015 52.9 51.6 96% 29.97 0.0
10 02:15 NE 5 10.00 Overcast OVC007 53.1 51.6 95% 29.97 0.0
10 01:55 NE 5 10.00 Overcast OVC009 53.1 51.4 94% 29.96 0.0
10 01:35 E 6 10.00 Overcast OVC013 54.1 51.3 90% 29.96 0.0
10 01:15 NE 5 10.00 Overcast OVC015 55 50.9 86% 29.95 0.0
10 00:55 NE 5 10.00 Overcast OVC015 55 50.7 70 55 85% 29.95 0.0
10 00:35 NE 5 10.00 Overcast OVC015 55.4 50.4 83% 29.95 0.0
10 00:15 NE 7 10.00 Overcast BKN015 OVC030 55.4 50.2 83% 29.95 0.0
09 23:55 NE 6 10.00 Overcast SCT015 OVC032 55.4 50.7 84% 29.95 0.0
09 23:35 NE 8 10.00 Overcast BKN034 OVC042 55.8 50.9 84% 29.94 0.0
09 23:15 E 8 10.00 Overcast SCT034 BKN042 OVC048 56.3 51.1 83% 29.94 0.0
09 22:55 E 10 10.00 Overcast OVC049 57 51.3 81% 29.93 0.0
09 22:35 N 7 10.00 Overcast OVC049 60.8 49.6 67% 29.93 0.0
Date Time (cdt) Wind (mph) Vis. (mi.) Weather Sky Cond. Air Dwpt Max. Min. Relative Humidity Wind Chill (°F) Heat Index (°F) altimeter (in) sea level (mb) 1 hr 3 hr 6 hr
6 hour
Temperature (ºF) Pressure Precipitation (in)